| time (UTC) | temp F | wind direction | speed MPH | gust MPH | rain 1hr in | rain 24hr in | rain mn in | humidity % | barometer mb |
| 20260503024504 | 79 | 293 | 3.0 | 7.0 | 0.00 | 0.00 | 0.00 | 79 | 1011.8 |
| 20260503024004 | 79 | 292 | 2.0 | 6.0 | 0.00 | 0.00 | 0.00 | 78 | 1011.7 |
| 20260503023505 | 79 | 296 | 2.0 | 3.0 | 0.00 | 0.00 | 0.00 | 77 | 1011.8 |
| 20260503022504 | 80 | 292 | 2.0 | 3.0 | 0.00 | 0.00 | 0.00 | 76 | 1011.8 |
| 20260503022004 | 80 | 294 | 2.0 | 3.0 | 0.00 | 0.00 | 0.00 | 75 | 1011.8 |
| 20260503021004 | 80 | 279 | 4.0 | 7.0 | 0.00 | 0.00 | 0.00 | 74 | 1011.6 |
| 20260503020504 | 80 | 280 | 2.0 | 6.0 | 0.00 | 0.00 | 0.00 | 74 | 1011.5 |
| 20260503020004 | 80 | 299 | 2.0 | 6.0 | 0.00 | 0.00 | 0.00 | 73 | 1011.5 |
| 20260503015504 | 81 | 273 | 3.0 | 6.0 | 0.00 | 0.00 | 0.00 | 73 | 1011.6 |
| 20260503015004 | 81 | 287 | 2.0 | 6.0 | 0.00 | 0.00 | 0.00 | 72 | 1011.6 |
| 20260503014504 | 81 | 286 | 2.0 | 6.0 | 0.00 | 0.00 | 0.00 | 72 | 1011.6 |
| 20260503014005 | 81 | 281 | 3.0 | 8.0 | 0.00 | 0.00 | 0.00 | 71 | 1011.5 |
| 20260503013504 | 81 | 296 | 4.0 | 9.0 | 0.00 | 0.00 | 0.00 | 71 | 1011.5 |
| 20260503013005 | 81 | 281 | 3.0 | 7.0 | 0.00 | 0.00 | 0.00 | 70 | 1011.5 |
| 20260503012504 | 81 | 300 | 5.0 | 12.0 | 0.00 | 0.00 | 0.00 | 69 | 1011.4 |
| 20260503011504 | 81 | 294 | 3.0 | 7.0 | 0.00 | 0.00 | 0.00 | 68 | 1011.3 |
| 20260503010505 | 81 | 285 | 3.0 | 7.0 | 0.00 | 0.00 | 0.00 | 66 | 1011.0 |
| 20260503010004 | 82 | 298 | 2.0 | 9.0 | 0.00 | 0.00 | 0.00 | 66 | 1011.0 |
| 20260503005004 | 82 | 304 | 3.0 | 9.0 | 0.00 | 0.00 | 0.00 | 64 | 1010.8 |
| 20260503004504 | 82 | 284 | 3.0 | 9.0 | 0.00 | 0.00 | 0.00 | 64 | 1010.7 |
| 20260503004004 | 82 | 286 | 3.0 | 8.0 | 0.00 | 0.00 | 0.00 | 63 | 1010.8 |
| 20260503003505 | 82 | 282 | 4.0 | 9.0 | 0.00 | 0.00 | 0.00 | 62 | 1010.7 |
| 20260503003004 | 83 | 297 | 3.0 | 10.0 | 0.00 | 0.00 | 0.00 | 62 | 1010.5 |
| 20260503002504 | 83 | 283 | 5.0 | 10.0 | 0.00 | 0.00 | 0.00 | 61 | 1010.5 |
| 20260503002004 | 83 | 285 | 4.0 | 8.0 | 0.00 | 0.00 | 0.00 | 60 | 1010.4 |
| 20260503001504 | 83 | 283 | 6.0 | 12.0 | 0.00 | 0.00 | 0.00 | 59 | 1010.4 |
| 20260503000504 | 83 | 290 | 6.0 | 12.0 | 0.00 | 0.00 | 0.00 | 60 | 1010.3 |
| 20260503000004 | 83 | 270 | 2.0 | 6.0 | 0.00 | 0.00 | 0.00 | 61 | 1010.1 |
| 20260502235505 | 83 | 313 | 3.0 | 6.0 | 0.00 | 0.00 | 0.00 | 61 | 1010.0 |
| 20260502235005 | 84 | 280 | 4.0 | 9.0 | 0.00 | 0.00 | 0.00 | 59 | 1009.9 |
| 20260502234504 | 84 | 263 | 3.0 | 7.0 | 0.00 | 0.00 | 0.00 | 59 | 1009.8 |
| 20260502234004 | 84 | 262 | 3.0 | 5.0 | 0.00 | 0.00 | 0.00 | 58 | 1009.7 |
| 20260502233504 | 84 | 261 | 3.0 | 10.0 | 0.00 | 0.00 | 0.00 | 57 | 1009.7 |
| 20260502233004 | 85 | 266 | 5.0 | 12.0 | 0.00 | 0.00 | 0.00 | 56 | 1009.5 |
| 20260502232504 | 85 | 295 | 3.0 | 8.0 | 0.00 | 0.00 | 0.00 | 56 | 1009.5 |
| 20260502232005 | 85 | 278 | 5.0 | 9.0 | 0.00 | 0.00 | 0.00 | 55 | 1009.4 |
| 20260502231504 | 86 | 245 | 3.0 | 10.0 | 0.00 | 0.00 | 0.00 | 55 | 1009.3 |
| 20260502231004 | 86 | 279 | 5.0 | 10.0 | 0.00 | 0.00 | 0.00 | 53 | 1009.2 |
| 20260502230504 | 87 | 284 | 5.0 | 12.0 | 0.00 | 0.00 | 0.00 | 52 | 1009.0 |
| 20260502230004 | 87 | 260 | 6.0 | 12.0 | 0.00 | 0.00 | 0.00 | 53 | 1008.9 |
| 20260502225504 | 87 | 255 | 6.0 | 12.0 | 0.00 | 0.00 | 0.00 | 52 | 1008.8 |
| 20260502225005 | 87 | 292 | 5.0 | 9.0 | 0.00 | 0.00 | 0.00 | 53 | 1008.9 |
| 20260502224504 | 88 | 273 | 6.0 | 13.0 | 0.00 | 0.00 | 0.00 | 54 | 1008.9 |
| 20260502224004 | 88 | 239 | 3.0 | 12.0 | 0.00 | 0.00 | 0.00 | 52 | 1008.7 |
| 20260502223504 | 88 | 248 | 5.0 | 13.0 | 0.00 | 0.00 | 0.00 | 53 | 1008.7 |
| 20260502223004 | 89 | 240 | 6.0 | 12.0 | 0.00 | 0.00 | 0.00 | 51 | 1008.7 |
| 20260502222504 | 89 | 237 | 4.0 | 10.0 | 0.00 | 0.00 | 0.00 | 52 | 1008.7 |
| 20260502222005 | 89 | 272 | 5.0 | 13.0 | 0.00 | 0.00 | 0.00 | 53 | 1008.8 |
| 20260502221504 | 89 | 258 | 3.0 | 12.0 | 0.00 | 0.00 | 0.00 | 53 | 1008.8 |
| 20260502221004 | 89 | 241 | 6.0 | 12.0 | 0.00 | 0.00 | 0.00 | 53 | 1008.7 |
| 20260502220504 | 90 | 275 | 4.0 | 10.0 | 0.00 | 0.00 | 0.00 | 54 | 1008.7 |
| 20260502220004 | 90 | 293 | 6.0 | 13.0 | 0.00 | 0.00 | 0.00 | 52 | 1008.7 |
| 20260502215005 | 90 | 251 | 5.0 | 12.0 | 0.00 | 0.00 | 0.00 | 53 | 1008.6 |
| 20260502213504 | 90 | 288 | 4.0 | 15.0 | 0.00 | 0.00 | 0.00 | 53 | 1008.4 |
| 20260502213006 | 90 | 251 | 6.0 | 12.0 | 0.00 | 0.00 | 0.00 | 53 | 1008.3 |
| 20260502212504 | 91 | 271 | 8.0 | 13.0 | 0.00 | 0.00 | 0.00 | 51 | 1008.3 |
| 20260502211504 | 92 | 270 | 6.0 | 12.0 | 0.00 | 0.00 | 0.00 | 51 | 1008.3 |
| 20260502211004 | 92 | 269 | 3.0 | 12.0 | 0.00 | 0.00 | 0.00 | 48 | 1008.2 |
| 20260502210504 | 92 | 283 | 4.0 | 9.0 | 0.00 | 0.00 | 0.00 | 49 | 1008.2 |
| 20260502205504 | 92 | 232 | 5.0 | 10.0 | 0.00 | 0.00 | 0.00 | 48 | 1008.1 |
| 20260502205004 | 92 | 299 | 5.0 | 12.0 | 0.00 | 0.00 | 0.00 | 49 | 1008.0 |
| 20260502204504 | 93 | 224 | 5.0 | 12.0 | 0.00 | 0.00 | 0.00 | 48 | 1008.1 |
| 20260502203504 | 93 | 273 | 6.0 | 12.0 | 0.00 | 0.00 | 0.00 | 43 | 1008.1 |
| 20260502203004 | 93 | 288 | 6.0 | 12.0 | 0.00 | 0.00 | 0.00 | 45 | 1008.1 |
| 20260502202504 | 93 | 272 | 5.0 | 12.0 | 0.00 | 0.00 | 0.00 | 45 | 1008.2 |
| 20260502201504 | 93 | 243 | 6.0 | 13.0 | 0.00 | 0.00 | 0.00 | 47 | 1008.4 |
| 20260502201004 | 93 | 300 | 5.0 | 12.0 | 0.00 | 0.00 | 0.00 | 45 | 1008.5 |
| 20260502200504 | 93 | 252 | 5.0 | 12.0 | 0.00 | 0.00 | 0.00 | 45 | 1008.6 |
| 20260502195005 | 93 | 299 | 9.0 | 13.0 | 0.00 | 0.00 | 0.00 | 47 | 1008.8 |
| 20260502194504 | 93 | 279 | 6.0 | 21.0 | 0.00 | 0.00 | 0.00 | 48 | 1008.7 |
| 20260502194004 | 93 | 230 | 5.0 | 12.0 | 0.00 | 0.00 | 0.00 | 49 | 1008.8 |
| 20260502193504 | 93 | 292 | 5.0 | 13.0 | 0.00 | 0.00 | 0.00 | 49 | 1008.9 |
| 20260502193004 | 93 | 283 | 6.0 | 13.0 | 0.00 | 0.00 | 0.00 | 46 | 1009.0 |
| 20260502192505 | 94 | 282 | 9.0 | 16.0 | 0.00 | 0.00 | 0.00 | 46 | 1009.1 |
| 20260502192004 | 94 | 281 | 6.0 | 15.0 | 0.00 | 0.00 | 0.00 | 50 | 1009.0 |
| 20260502191004 | 92 | 262 | 6.0 | 13.0 | 0.00 | 0.00 | 0.00 | 52 | 1009.1 |
| 20260502190004 | 93 | 304 | 6.0 | 13.0 | 0.00 | 0.00 | 0.00 | 55 | 1009.2 |
| 20260502185004 | 93 | 286 | 6.0 | 12.0 | 0.00 | 0.00 | 0.00 | 52 | 1009.2 |
| 20260502184504 | 93 | 251 | 3.0 | 10.0 | 0.00 | 0.00 | 0.00 | 54 | 1009.2 |
| 20260502184004 | 93 | 230 | 6.0 | 14.0 | 0.00 | 0.00 | 0.00 | 53 | 1009.2 |
| 20260502183504 | 91 | 276 | 7.0 | 13.0 | 0.00 | 0.00 | 0.00 | 54 | 1009.2 |
| 20260502182504 | 92 | 258 | 7.0 | 13.0 | 0.00 | 0.00 | 0.00 | 59 | 1009.3 |
| 20260502181504 | 92 | 251 | 7.0 | 13.0 | 0.00 | 0.00 | 0.00 | 54 | 1009.5 |
| 20260502181004 | 92 | 252 | 9.0 | 16.0 | 0.00 | 0.00 | 0.00 | 56 | 1009.4 |
| 20260502180504 | 92 | 236 | 7.0 | 18.0 | 0.00 | 0.00 | 0.00 | 55 | 1009.5 |
| 20260502170504 | 92 | 279 | 10.0 | 16.0 | 0.00 | 0.00 | 0.00 | 60 | 1009.7 |
| 20260502164004 | 90 | 218 | 9.0 | 16.0 | 0.00 | 0.00 | 0.00 | 66 | 1010.0 |
| 20260502163505 | 89 | 290 | 6.0 | 15.0 | 0.00 | 0.00 | 0.00 | 65 | 1010.0 |
| 20260502163004 | 90 | 269 | 4.0 | 16.0 | 0.00 | 0.00 | 0.00 | 64 | 1010.1 |
| 20260502162004 | 89 | 264 | 5.0 | 12.0 | 0.00 | 0.00 | 0.00 | 63 | 1010.1 |
| 20260502161504 | 91 | 297 | 3.0 | 12.0 | 0.00 | 0.00 | 0.00 | 65 | 1010.1 |
| 20260502161004 | 90 | 266 | 3.0 | 9.0 | 0.00 | 0.00 | 0.00 | 67 | 1010.1 |
| 20260502160504 | 91 | 241 | 3.0 | 10.0 | 0.00 | 0.00 | 0.00 | 64 | 1010.1 |
| 20260502152003 | 89 | 236 | 6.0 | 13.0 | 0.00 | 0.00 | 0.00 | 68 | 1010.3 |
| 20260502151504 | 89 | 217 | 6.0 | 15.0 | 0.00 | 0.00 | 0.00 | 69 | 1010.4 |
| 20260502151004 | 89 | 246 | 6.0 | 15.0 | 0.00 | 0.00 | 0.00 | 70 | 1010.3 |
| 20260502150504 | 88 | 241 | 5.0 | 14.0 | 0.00 | 0.00 | 0.00 | 70 | 1010.2 |
| 20260502130504 | 84 | 253 | 3.0 | 9.0 | 0.00 | 0.00 | 0.00 | 80 | 1010.1 |
| 20260502123504 | 82 | 219 | 3.0 | 8.0 | 0.00 | 0.00 | 0.00 | 83 | 1010.1 |
| 20260502122504 | 81 | 231 | 2.0 | 5.0 | 0.00 | 0.00 | 0.00 | 85 | 1010.1 |
| 20260502122004 | 81 | 228 | 2.0 | 5.0 | 0.00 | 0.00 | 0.00 | 87 | 1010.1 |
| 20260502121504 | 80 | 214 | 1.0 | 6.0 | 0.00 | 0.00 | 0.00 | 88 | 1010.1 |
| 20260502121004 | 79 | 243 | 1.0 | 3.0 | 0.00 | 0.00 | 0.00 | 89 | 1010.0 |
| 20260502120504 | 78 | 160 | 1.0 | 5.0 | 0.00 | 0.00 | 0.00 | 91 | 1009.9 |
| 20260502115504 | 77 | 216 | 1.0 | 3.0 | 0.00 | 0.00 | 0.00 | 92 | 1009.9 |
| 20260502115004 | 77 | 232 | 2.0 | 7.0 | 0.00 | 0.00 | 0.00 | 92 | 1009.8 |
| 20260502114504 | 77 | 179 | 0.0 | 3.0 | 0.00 | 0.00 | 0.00 | 93 | 1009.9 |
| 20260502114003 | 77 | 205 | 0.0 | 2.0 | 0.00 | 0.00 | 0.00 | 93 | 1009.9 |
| 20260502113504 | 76 | 270 | 1.0 | 3.0 | 0.00 | 0.00 | 0.00 | 93 | 1009.8 |
| 20260502113004 | 76 | 137 | 0.0 | 2.0 | 0.00 | 0.00 | 0.00 | 94 | 1009.7 |
| 20260502112504 | 76 | 218 | 1.0 | 6.0 | 0.00 | 0.00 | 0.00 | 94 | 1009.7 |
| 20260502112004 | 76 | 215 | 1.0 | 5.0 | 0.00 | 0.00 | 0.00 | 94 | 1009.8 |
| 20260502111504 | 75 | 222 | 1.0 | 3.0 | 0.00 | 0.00 | 0.00 | 94 | 1009.8 |
| 20260502111004 | 75 | 240 | 1.0 | 5.0 | 0.00 | 0.00 | 0.00 | 94 | 1009.8 |
| 20260502110504 | 75 | 208 | 1.0 | 5.0 | 0.00 | 0.00 | 0.00 | 94 | 1009.9 |
| 20260502110004 | 75 | 197 | 1.0 | 2.0 | 0.00 | 0.00 | 0.00 | 94 | 1009.8 |
| 20260502105504 | 75 | 210 | 1.0 | 3.0 | 0.00 | 0.00 | 0.00 | 94 | 1009.7 |
| 20260502104504 | 75 | 202 | 1.0 | 2.0 | 0.00 | 0.00 | 0.00 | 94 | 1009.6 |
| 20260502104004 | 75 | 209 | 1.0 | 3.0 | 0.00 | 0.00 | 0.00 | 94 | 1009.7 |
| 20260502103504 | 75 | 220 | 0.0 | 3.0 | 0.00 | 0.00 | 0.00 | 94 | 1009.8 |
| 20260502103003 | 75 | 175 | 1.0 | 3.0 | 0.00 | 0.00 | 0.00 | 94 | 1009.8 |
| 20260502102504 | 75 | 230 | 0.0 | 2.0 | 0.00 | 0.00 | 0.00 | 94 | 1009.7 |
| 20260502102004 | 75 | 225 | 0.0 | 3.0 | 0.00 | 0.00 | 0.00 | 94 | 1009.8 |
| 20260502101505 | 75 | 143 | 0.0 | 1.0 | 0.00 | 0.00 | 0.00 | 94 | 1009.8 |
| 20260502101004 | 75 | 136 | 0.0 | 1.0 | 0.00 | 0.00 | 0.00 | 94 | 1009.8 |
| 20260502100504 | 75 | 209 | 0.0 | 1.0 | 0.00 | 0.00 | 0.00 | 94 | 1009.8 |
| 20260502091504 | 75 | 208 | 0.0 | 3.0 | 0.00 | 0.00 | 0.00 | 94 | 1009.6 |
| 20260502071505 | 73 | 246 | 0.0 | 0.0 | 0.00 | 0.00 | 0.00 | 94 | 1009.6 |
| 20260502071005 | 73 | 246 | 0.0 | 0.0 | 0.00 | 0.00 | 0.00 | 93 | 1009.7 |
| 20260502070506 | 73 | 246 | 0.0 | 0.0 | 0.00 | 0.00 | 0.00 | 93 | 1009.7 |
| 20260502070005 | 73 | 246 | 0.0 | 0.0 | 0.00 | 0.00 | 0.00 | 93 | 1009.6 |
| 20260502065505 | 73 | 246 | 0.0 | 0.0 | 0.00 | 0.00 | 0.00 | 93 | 1009.6 |
| 20260502065005 | 72 | 246 | 0.0 | 0.0 | 0.00 | 0.00 | 0.00 | 93 | 1009.6 |
| 20260502064505 | 72 | 246 | 0.0 | 0.0 | 0.00 | 0.00 | 0.00 | 93 | 1009.7 |
| 20260502064005 | 72 | 246 | 0.0 | 0.0 | 0.00 | 0.00 | 0.00 | 93 | 1009.7 |
| 20260502063505 | 72 | 246 | 0.0 | 0.0 | 0.00 | 0.00 | 0.00 | 93 | 1009.8 |
| 20260502063005 | 72 | 246 | 0.0 | 0.0 | 0.00 | 0.00 | 0.00 | 93 | 1009.8 |
| 20260502062505 | 72 | 246 | 0.0 | 0.0 | 0.00 | 0.00 | 0.00 | 93 | 1009.8 |
| 20260502062006 | 72 | 246 | 0.0 | 0.0 | 0.00 | 0.00 | 0.00 | 93 | 1009.8 |
| 20260502061005 | 72 | 246 | 0.0 | 0.0 | 0.00 | 0.00 | 0.00 | 93 | 1009.9 |
| 20260502060006 | 72 | 246 | 0.0 | 0.0 | 0.00 | 0.00 | 0.00 | 93 | 1009.9 |
| 20260502055505 | 72 | 246 | 0.0 | 0.0 | 0.00 | 0.00 | 0.00 | 92 | 1009.9 |
| 20260502055006 | 72 | 246 | 0.0 | 0.0 | 0.00 | 0.00 | 0.00 | 93 | 1009.8 |
| 20260502054506 | 72 | 246 | 0.0 | 0.0 | 0.00 | 0.00 | 0.00 | 92 | 1009.9 |
| 20260502054005 | 72 | 246 | 0.0 | 0.0 | 0.00 | 0.00 | 0.00 | 92 | 1009.9 |
| 20260502053506 | 72 | 246 | 0.0 | 0.0 | 0.00 | 0.00 | 0.00 | 93 | 1009.9 |
| 20260502053005 | 72 | 246 | 0.0 | 0.0 | 0.00 | 0.00 | 0.00 | 92 | 1010.0 |
| 20260502052505 | 72 | 246 | 0.0 | 0.0 | 0.00 | 0.00 | 0.00 | 92 | 1010.0 |
| 20260502052005 | 72 | 246 | 0.0 | 0.0 | 0.00 | 0.00 | 0.00 | 92 | 1010.0 |
| 20260502051505 | 72 | 246 | 0.0 | 0.0 | 0.00 | 0.00 | 0.00 | 92 | 1010.1 |
| 20260502051005 | 72 | 246 | 0.0 | 0.0 | 0.00 | 0.00 | 0.00 | 92 | 1010.1 |
| 20260502050506 | 72 | 246 | 0.0 | 0.0 | 0.00 | 0.00 | 0.00 | 92 | 1010.2 |
| 20260502050005 | 72 | 246 | 0.0 | 0.0 | 0.00 | 0.00 | 0.00 | 92 | 1010.3 |
| 20260502044505 | 72 | 246 | 0.0 | 0.0 | 0.00 | 0.00 | 0.00 | 91 | 1010.6 |
| 20260502044005 | 73 | 246 | 0.0 | 0.0 | 0.00 | 0.00 | 0.00 | 91 | 1010.5 |
| 20260502043505 | 73 | 246 | 0.0 | 0.0 | 0.00 | 0.00 | 0.00 | 91 | 1010.6 |
| 20260502043006 | 73 | 246 | 0.0 | 1.0 | 0.00 | 0.00 | 0.00 | 91 | 1010.6 |
| 20260502042505 | 73 | 246 | 0.0 | 0.0 | 0.00 | 0.00 | 0.00 | 91 | 1010.7 |
| 20260502042005 | 73 | 246 | 0.0 | 1.0 | 0.00 | 0.00 | 0.00 | 91 | 1010.7 |
| 20260502041505 | 73 | 246 | 0.0 | 0.0 | 0.00 | 0.00 | 0.00 | 91 | 1010.6 |
| 20260502040506 | 73 | 246 | 0.0 | 0.0 | 0.00 | 0.00 | 0.00 | 90 | 1010.6 |
| 20260502040005 | 73 | 246 | 0.0 | 0.0 | 0.00 | 0.00 | 0.00 | 91 | 1010.6 |
| 20260502035505 | 73 | 246 | 0.0 | 0.0 | 0.00 | 0.00 | 0.00 | 90 | 1010.7 |
| 20260502035005 | 73 | 246 | 0.0 | 0.0 | 0.00 | 0.00 | 0.00 | 90 | 1010.7 |
| 20260502034505 | 74 | 246 | 0.0 | 0.0 | 0.00 | 0.00 | 0.00 | 90 | 1010.6 |
| 20260502034005 | 74 | 246 | 0.0 | 0.0 | 0.00 | 0.00 | 0.00 | 89 | 1010.6 |
| 20260502033005 | 74 | 246 | 0.0 | 0.0 | 0.00 | 0.00 | 0.00 | 89 | 1010.5 |
| 20260502032505 | 74 | 246 | 0.0 | 0.0 | 0.00 | 0.00 | 0.00 | 89 | 1010.5 |
| 20260502032005 | 74 | 246 | 0.0 | 0.0 | 0.00 | 0.00 | 0.00 | 88 | 1010.5 |
| 20260502031505 | 75 | 246 | 0.0 | 0.0 | 0.00 | 0.00 | 0.00 | 88 | 1010.5 |
| 20260502031005 | 75 | 246 | 0.0 | 0.0 | 0.00 | 0.00 | 0.00 | 88 | 1010.5 |
| 20260502030505 | 75 | 246 | 0.0 | 0.0 | 0.00 | 0.00 | 0.00 | 88 | 1010.5 |
| 20260502030006 | 75 | 246 | 0.0 | 1.0 | 0.00 | 0.00 | 0.00 | 88 | 1010.6 |
| 20260502025505 | 75 | 246 | 0.0 | 1.0 | 0.00 | 0.00 | 0.00 | 87 | 1010.5 |
| 20260502025005 | 75 | 246 | 1.0 | 3.0 | 0.00 | 0.00 | 0.00 | 87 | 1010.4 |